Time,B instrument,Bx,By,Bz,sigma B,Ion instrument,Status,Tp_par,Tp_perp,carrot,r_sun,clat,clong,earth_he_angle,n_p,vp_x,vp_y,vp_z,vth_p_par,vth_p_perp
1980-12-19 00:05:05,1,-21.7667,-14.2333,-11.0667,0.33665,1,1,53543.6,74057.7,1703,0.42510194,7.1181021,214.38615,248.73381,39.9802,280.146,-33.0875,-28.7315,29.7311,34.9658
1980-12-19 00:10:30,1,-23.9,-11.4,-7.6,1.96214,1,1,50760.8,61599.8,1703,0.42514634,7.1183834,214.34482,248.74326,43.242,277.281,-32.6866,-17.7604,28.9482,31.8895
1980-12-19 00:15:54,1,-26.8,-1.9,-10.0,0.0,1,1,51856.7,52021.0,1703,0.42519081,7.1186638,214.30348,248.7527,37.8852,268.753,-0.729109,-20.1371,29.2591,29.3054
1980-12-19 00:21:18,1,-26.6,-4.9,-8.6,0.0,1,1,51075.2,52211.5,1703,0.42524409,7.1190004,214.26794,248.76404,37.9706,271.925,-11.9676,-24.5611,29.0378,29.359
1980-12-19 00:26:42,1,-26.5333,-2.56667,-10.9333,0.6,1,1,50242.8,56108.3,1703,0.42528856,7.1192818,214.22662,248.7735,36.471,271.676,0.683942,-27.6608,28.8002,30.4349
1980-12-19 00:32:06,1,-26.4,-2.75,-12.0,0.269258,1,1,54943.7,57784.5,1703,0.42534184,7.1196184,214.19109,248.78484,36.5619,274.909,-6.21535,-34.4581,30.1174,30.8861
1980-12-19 00:37:30,1,-25.3,-3.3,-14.4,0.489898,1,1,47417.4,57917.6,1703,0.42538631,7.1198997,214.14975,248.79428,38.196,278.24,1.99786,-33.4305,27.9786,30.9217
1980-12-19 00:42:54,1,-28.4,-1.85,-4.6,0.403113,1,1,46333.6,54246.1,1703,0.42543072,7.1201801,214.10841,248.80373,35.8618,266.778,2.92835,-13.8559,27.657,29.9255
1980-12-19 00:48:18,1,-25.8667,3.8,6.33333,1.73526,1,1,55381.6,53778.0,1703,0.42548406,7.1205177,214.07288,248.81506,38.922,263.985,18.4951,1.1912,30.2371,29.7961
1980-12-19 00:53:42,1,-28.3,3.65,-0.4,0.438748,1,1,46756.0,55422.6,1703,0.42552847,7.1207981,214.03156,248.82452,37.8937,267.778,25.51,-4.27613,27.7828,30.2483
1980-12-19 00:59:06,1,-26.7,10.3,0.6,0.2,1,1,44889.2,61397.2,1703,0.42558175,7.1211357,213.99211,248.83586,38.7433,266.183,9.52598,-13.9332,27.2226,31.837
1980-12-19 01:24:54,-1,nan,nan,nan,nan,1,3,nan,nan,1703,0.42580408,7.1225138,213.80482,248.88295,nan,267.85,38.6555,-8.73922,nan,nan
1980-12-19 02:08:06,-1,nan,nan,nan,nan,1,3,nan,nan,1703,0.42619532,7.1249313,213.49312,248.96577,nan,268.492,32.7658,-1.36711,nan,nan
1980-12-19 02:51:18,-1,nan,nan,nan,nan,1,3,nan,nan,1703,0.42657781,7.1272583,213.17929,249.04648,nan,275.823,44.3088,8.76976,nan,nan
1980-12-19 03:24:54,-1,nan,nan,nan,nan,1,3,nan,nan,1703,0.42687154,7.1290197,212.93248,249.10826,nan,304.862,32.761,9.75276,nan,nan
1980-12-19 04:08:06,-1,nan,nan,nan,nan,1,3,nan,nan,1703,0.4272632,7.1313477,212.62019,249.19051,nan,288.529,33.1486,19.3225,nan,nan
1980-12-19 04:51:18,-1,nan,nan,nan,nan,1,3,nan,nan,1703,0.42764616,7.1335878,212.30582,249.27066,nan,275.163,-2.7065,27.4006,nan,nan
1980-12-19 05:34:30,-1,nan,nan,nan,nan,1,3,nan,nan,1703,0.4280293,7.1357946,211.99121,249.35059,nan,287.104,-2.48681,-37.9973,nan,nan
1980-12-19 06:17:42,-1,nan,nan,nan,nan,1,3,nan,nan,1703,0.4284125,7.1379757,211.67645,249.43036,nan,293.99,4.54897,16.2592,nan,nan
1980-12-19 06:24:47,-1,nan,nan,nan,nan,1,3,nan,nan,1703,0.4284749,7.1383276,211.623,249.44331,nan,266.175,21.139,-28.372,nan,nan
1980-12-19 07:57:15,-1,nan,nan,nan,nan,1,3,nan,nan,1703,0.42930436,7.1429348,210.95105,249.61511,nan,329.46,17.9154,13.9306,nan,nan
1980-12-19 07:59:57,1,-5.93333,20.6,12.2667,2.33047,1,1,93343.8,101056.0,1703,0.42932218,7.143033,210.9313,249.6188,117.472,342.022,41.6193,4.96608,39.2555,40.845
1980-12-19 08:02:39,1,-6.26667,19.4667,8.0,0.575423,1,1,89715.9,95465.1,1703,0.42934895,7.1431789,210.90948,249.62433,116.198,340.67,36.49,4.66552,38.4851,39.6991
1980-12-19 08:03:16,1,-5.46667,18.6333,10.2667,0.424264,1,1,99446.9,93565.1,1703,0.42935789,7.1432266,210.90741,249.62616,118.125,339.587,37.3349,2.72426,40.5185,39.302
1980-12-19 08:05:59,1,-8.13333,17.0667,19.9333,1.46059,1,1,86016.0,66723.9,1703,0.42937571,7.1433229,210.88765,249.62984,95.3417,338.651,30.3008,5.2512,37.6832,33.1893
1980-12-19 08:08:41,1,-2.5,15.4333,18.3333,2.25191,1,1,158303.0,81121.6,1703,0.42940247,7.1434679,210.86581,249.63535,103.591,346.878,25.87,5.1863,51.1214,36.5954
1980-12-19 08:11:23,1,12.4,-27.0667,14.0,0.410961,1,1,60069.3,105072.0,1703,0.42942923,7.1436119,210.8479,249.64087,55.1056,360.379,-19.9044,13.9385,31.4908,41.6486
1980-12-19 08:14:05,1,11.8333,-26.5,12.9333,0.405518,1,1,55329.2,136890.0,1703,0.42945606,7.1437569,210.82997,249.64638,38.9975,351.998,-2.70441,5.48218,30.2228,47.5383
1980-12-19 08:16:47,1,9.76667,-26.4,10.4,1.28927,1,1,73349.4,116060.0,1703,0.42947388,7.1438532,210.8063,249.65005,40.953,351.991,-2.73463,16.1638,34.7981,43.7722
1980-12-19 08:19:29,1,11.2667,-24.0,12.9333,0.24037,1,1,92756.8,109837.0,1703,0.42950064,7.1439972,210.78839,249.65558,44.6535,352.558,-13.3376,8.76263,39.1319,42.5827
1980-12-19 08:22:11,1,10.5,-23.7667,11.7333,0.681502,1,1,159086.0,85327.3,1703,0.4295274,7.1441422,210.77046,249.66109,45.5521,355.887,-18.5564,5.01141,51.2477,37.532
1980-12-19 08:24:53,1,9.925,-23.525,10.7,1.05771,1,1,143081.0,87218.9,1703,0.42954528,7.1442385,210.7468,249.66476,42.6132,350.22,-19.6256,4.44601,48.6014,37.9458
1980-12-19 08:27:35,1,12.2,-22.0667,10.8,1.46591,1,1,120941.0,80983.7,1703,0.42957205,7.1443825,210.72888,249.67029,38.8412,349.017,-12.0801,5.12918,44.6832,36.5643
1980-12-19 08:30:17,1,9.825,-22.725,8.0,0.483477,1,1,165755.0,82469.9,1703,0.42959881,7.1445274,210.71095,249.6758,45.0481,356.383,-17.6843,5.7135,52.3107,36.8982
1980-12-19 08:32:59,1,10.2333,-26.8,5.26667,0.312694,1,1,111012.0,70550.4,1703,0.42961669,7.1446238,210.69119,249.67947,39.5006,358.511,-12.9213,6.11023,42.8098,34.1278
1980-12-19 08:35:41,1,10.05,-26.825,2.6,0.93508,1,1,85121.4,72936.2,1703,0.42964345,7.1447678,210.66936,249.68498,37.6264,357.742,-10.7948,12.9388,37.4867,34.7
1980-12-19 08:38:23,1,7.46667,-23.2,9.93333,0.773161,1,1,147117.0,73951.2,1703,0.42967021,7.1449127,210.65144,249.69051,39.4185,364.419,-20.6303,-12.3516,49.2821,34.9406
1980-12-19 08:41:05,1,9.06667,-22.0,1.86667,0.253859,1,1,136058.0,79857.8,1703,0.42969698,7.1450567,210.63351,249.69601,67.5835,371.129,-39.6615,-2.52293,47.3936,36.3092
1980-12-19 08:43:47,1,10.7667,-22.2667,-2.73333,0.282843,1,1,126961.0,73500.3,1703,0.4297148,7.145153,210.60985,249.69969,73.3958,378.005,-42.755,-11.3292,45.7819,34.8339
1980-12-19 08:46:29,1,12.35,-22.0,-2.1,0.701783,1,1,115539.0,62186.9,1703,0.42974162,7.145298,210.59193,249.70522,61.7922,379.397,-39.7979,-9.6011,43.6739,32.0411
1980-12-19 08:49:11,1,14.7333,-17.7667,-4.8,0.77746,1,1,81563.8,63045.1,1703,0.42976838,7.145442,210.57401,249.71072,83.196,390.2,-43.0018,-10.3554,36.695,32.2614
1980-12-19 08:51:53,1,16.175,-17.4,-10.9,0.449305,1,1,125854.0,71026.2,1703,0.42978621,7.1455383,210.55034,249.7144,52.4134,380.927,-25.129,-18.1383,45.5818,34.2426
1980-12-19 08:54:35,1,14.9667,-20.2,-3.06667,0.312694,1,1,189327.0,72276.8,1703,0.42981297,7.1456833,210.53242,249.71992,73.8656,385.131,-43.6252,-5.44663,55.9068,34.5428
1980-12-19 08:57:17,1,16.475,-15.675,-8.45,1.91605,1,1,101601.0,72854.1,1703,0.42983973,7.1458273,210.5145,249.72543,58.788,380.891,-30.2285,-3.03334,40.9551,34.6805
1980-12-19 08:59:59,1,17.3667,-13.7,-8.0,0.485341,1,1,131667.0,72393.4,1703,0.42985761,7.1459236,210.49083,249.72911,77.6451,402.796,-34.1636,-15.0383,46.6226,34.5706
1980-12-19 09:02:41,1,15.2,-16.3667,-6.33333,0.839312,1,1,99019.2,70741.2,1703,0.42988437,7.1460667,210.4729,249.73462,73.3867,398.55,-38.1759,-14.0686,40.4313,34.1739
1980-12-19 09:05:23,1,17.0667,-16.5333,-5.46667,0.571548,1,1,181134.0,72493.7,1703,0.4299112,7.1462078,210.45496,249.74011,77.7246,402.679,-31.0473,-10.1462,54.6837,34.5946
1980-12-19 09:08:05,1,18.8667,-15.2667,-6.2,0.514242,1,1,152783.0,83379.1,1703,0.42993796,7.146349,210.43311,249.74561,65.6594,413.959,-25.2039,-5.88011,50.2222,37.1011
1980-12-19 09:10:47,1,15.35,-19.725,-8.8,0.24367,1,1,233121.0,69698.1,1703,0.42995584,7.1464434,210.41333,249.74927,67.7495,392.432,-22.5463,-8.72548,62.0367,33.921
1980-12-19 09:13:29,1,16.675,-18.025,-8.65,0.878208,1,1,209194.0,77881.2,1703,0.4299826,7.1465855,210.39539,249.75476,70.0812,390.698,-23.6623,-10.0242,58.7668,35.857
1980-12-19 09:16:11,1,17.3,-17.7,-9.13333,0.329983,1,1,209159.0,71213.2,1703,0.43000937,7.1467266,210.37355,249.76027,67.8231,391.248,-24.8648,-11.1235,58.7619,34.2877
1980-12-19 09:18:53,-1,nan,nan,nan,nan,1,4,nan,nan,1703,0.43002725,7.146821,210.35378,249.76393,nan,nan,nan,nan,nan,nan
1980-12-19 09:21:35,1,15.5667,-19.3667,-8.93333,0.702377,1,1,237311.0,68422.7,1703,0.43005401,7.1469631,210.33583,249.76942,70.0013,392.047,-25.6436,-12.765,62.5917,33.6092
1980-12-19 09:24:17,1,15.5333,-14.8667,-8.6,0.253859,1,1,69914.5,73907.1,1703,0.43008083,7.1471043,210.31398,249.77492,67.7912,405.088,-34.7449,-16.7364,33.9736,34.9302
1980-12-19 09:26:59,1,18.0667,-12.3667,-8.06667,0.890693,1,1,96123.1,74233.8,1703,0.43009865,7.1471987,210.2942,249.77858,78.2549,406.51,-25.3689,-16.7034,39.8356,35.0073
1980-12-19 09:29:41,1,18.5667,-11.3667,-9.8,0.24037,1,1,71739.4,74713.5,1703,0.43012547,7.1473408,210.27628,249.78409,70.4187,400.856,-21.5423,-17.9512,34.4141,35.1202
1980-12-19 09:32:23,1,19.1667,-10.7667,-10.0667,1.41421,1,1,69518.4,70961.5,1703,0.43015224,7.1474819,210.25833,249.78958,70.4235,398.137,-19.5429,-17.7221,33.8772,34.227
1980-12-19 09:35:05,1,20.7,-5.5,-11.0,0.391578,1,1,67855.0,67699.7,1703,0.43017906,7.1476231,210.23648,249.79507,74.9243,378.191,-8.86665,-9.46621,33.4695,33.4311
1980-12-19 09:37:47,1,18.3333,-5.4,-10.4667,0.397213,1,1,60804.3,60519.6,1703,0.43019688,7.1477175,210.21671,249.79874,81.4966,371.725,-9.703,-7.76972,31.6829,31.6086
1980-12-19 09:40:29,1,11.6,4.4,-6.1,1.26491,1,1,90410.7,68469.1,1703,0.4302237,7.1478596,210.19876,249.80423,118.386,363.648,-3.11515,-3.17631,38.6338,33.6206
1980-12-19 09:43:11,1,15.0667,3.03333,-7.33333,0.447214,1,1,73222.0,65103.5,1703,0.43025047,7.1480007,210.17691,249.80972,107.933,371.287,-0.809561,-5.58295,34.7679,32.7839
1980-12-19 09:45:53,1,11.1,3.66667,-7.0,0.77603,1,1,85614.4,65838.8,1703,0.43026835,7.1480951,210.15715,249.8134,117.641,363.741,-2.39541,-2.37162,37.5951,32.9685
1980-12-19 09:48:35,1,11.7,5.53333,-6.73333,0.194365,1,1,79710.8,56670.1,1703,0.43029511,7.1482372,210.13921,249.81889,115.119,363.133,-5.8297,-2.94284,36.2758,30.5869
1980-12-19 09:51:17,1,11.8,4.43333,-6.6,0.262467,1,1,66343.1,54746.8,1703,0.43032187,7.1483784,210.11736,249.82439,108.621,361.911,-4.78865,-3.27741,33.0945,30.0633
1980-12-19 09:53:59,1,12.1333,3.96667,-5.93333,0.365148,1,1,72443.8,52617.8,1703,0.43033975,7.1484728,210.09758,249.82805,110.985,363.035,-5.50711,-4.15374,34.5827,29.473
1980-12-19 09:56:41,1,10.5,6.35,-6.6,0.193649,1,1,68639.7,51684.6,1703,0.43036652,7.1486149,210.07964,249.83354,113.337,362.881,-4.34273,-3.66195,33.6624,29.2105
1980-12-19 09:56:57,1,10.5333,6.2,-6.6,0.298142,1,1,50309.5,55895.6,1703,0.42847025,7.1807456,209.46515,249.22296,37.6062,267.972,30.3951,-11.1186,28.8193,30.3771
1980-12-19 10:08:50,1,11.8143,8.94286,-8.68571,0.416497,1,1,61396.1,51262.3,1703,0.42857602,7.1812696,209.37775,249.24493,98.8013,365.208,-4.00079,-3.7124,31.8367,29.0909
1980-12-19 10:09:52,1,12.7714,9.81429,-8.94286,0.434248,1,1,60175.4,51158.8,1703,0.43047374,7.1491737,209.98048,249.85548,110.496,360.694,-4.53054,-3.44427,31.5186,29.0615
1980-12-19 10:09:59,1,12.7286,9.47143,-8.8,0.870843,1,1,66776.8,53190.0,1703,0.43049157,7.1492662,209.98413,249.85913,111.943,360.165,-3.70039,-2.83553,33.2025,29.6328
1980-12-19 10:10:10,1,12.9,8.2,-8.56667,1.70359,1,1,51821.1,52997.4,1703,0.43049157,7.1492662,209.98022,249.85913,97.0193,366.791,-3.5763,-4.82651,29.249,29.5791
1980-12-19 10:11:31,1,13.9333,6.46667,-7.0,0.362093,1,1,55518.7,51633.7,1703,0.43050051,7.149312,209.97034,249.86096,98.419,364.119,0.625311,-5.30305,30.2745,29.1961
1980-12-19 10:14:13,1,14.6333,5.3,-6.33333,0.253859,1,1,53426.1,53132.2,1703,0.43052733,7.1494513,209.95238,249.86644,104.356,364.114,-0.0403687,-1.4688,29.6985,29.6167
1980-12-19 10:15:34,1,14.6,2.55,-6.96667,1.42293,1,1,61134.3,53665.1,1703,0.43053627,7.149497,209.94249,249.86827,101.176,361.513,-1.87099,0.0971756,31.7688,29.7649
1980-12-19 10:16:55,1,15.1667,4.48333,-6.0,0.443784,1,1,56240.4,53843.7,1703,0.43054521,7.1495438,209.92868,249.87009,106.853,362.531,-8.85313,-0.485683,30.4707,29.8143
1980-12-19 10:18:16,1,14.65,4.86667,-6.26667,0.305959,1,1,59767.0,49542.0,1703,0.43056303,7.1496363,209.92062,249.87375,106.711,359.994,-7.85538,0.819747,31.4115,28.5986
1980-12-19 10:19:37,1,14.9333,4.23333,-5.53333,0.3,1,1,66998.1,53862.3,1703,0.43057197,7.149682,209.91072,249.87556,110.042,358.915,-6.39646,1.18207,33.2575,29.8195
1980-12-19 10:20:58,1,15.1667,5.6,-3.8,0.546707,1,1,54804.8,47558.5,1703,0.43058091,7.1497288,209.90083,249.8774,110.095,360.629,-6.7223,1.05165,30.0793,28.0203
1980-12-19 10:22:19,1,15.45,5.51667,-3.2,0.440328,1,1,55952.0,52554.1,1703,0.4305988,7.1498213,209.89276,249.88104,107.458,362.203,-7.36919,0.758416,30.3925,29.4551
1980-12-19 10:25:01,1,16.275,5.5,-3.2,0.178536,1,1,56440.9,54113.7,1703,0.43062562,7.1499596,209.8709,249.88652,109.189,362.385,-6.49629,-1.65035,30.525,29.889
1980-12-19 10:26:22,1,16.2667,5.35,-2.0,0.35316,1,1,50659.5,50973.6,1703,0.43063456,7.1500063,209.86101,249.88835,105.997,362.211,-6.83437,-0.198024,28.9194,29.0089
1980-12-19 10:29:04,1,15.1167,5.33333,-2.16667,1.01283,1,1,60526.0,50513.4,1703,0.43066132,7.1501446,209.84305,249.89383,109.245,360.814,-6.85898,-2.53273,31.6103,28.8776
1980-12-19 10:30:25,1,12.75,5.71667,-4.6,0.746473,1,1,84370.2,57944.3,1703,0.43067026,7.1501913,209.83316,249.89566,119.503,358.092,-9.36625,0.533955,37.3209,30.9288
1980-12-19 10:31:46,1,12.45,5.51667,-5.6,0.828989,1,1,77645.8,55512.2,1703,0.4306792,7.150238,209.82326,249.89748,120.452,359.501,-8.72885,2.63012,35.8028,30.2728
1980-12-19 10:33:07,1,11.65,5.66667,-6.8,0.481029,1,1,71066.3,56421.2,1703,0.43069708,7.1503305,209.81129,249.90114,121.786,358.634,-10.8899,2.93469,34.2523,30.5196
1980-12-19 10:34:28,1,10.4333,2.88333,-4.2,1.57595,1,1,67777.5,56689.8,1703,0.43070602,7.1503763,209.80139,249.90295,126.266,357.86,-11.5224,5.98526,33.4503,30.5922
1980-12-19 10:35:49,1,10.35,3.85,-7.23333,0.866346,1,1,76815.6,55786.8,1703,0.43071496,7.150423,209.7915,249.90479,123.544,355.549,-10.7321,4.50933,35.6109,30.3476
1980-12-19 10:37:10,1,7.68333,1.98333,-8.66667,0.963501,1,1,71712.4,51373.3,1703,0.43073279,7.1505156,209.78343,249.90843,123.021,355.527,-8.3015,6.95858,34.4077,29.1224
1980-12-19 10:40:09,-1,nan,nan,nan,nan,1,3,nan,nan,1703,0.42885548,7.182642,209.15051,249.30286,nan,267.963,38.1002,-8.73923,nan,nan
1980-12-19 11:23:21,-1,nan,nan,nan,nan,1,3,nan,nan,1703,0.42924085,7.1845088,208.83563,249.38251,nan,268.605,32.2113,-1.3671,nan,nan
1980-12-19 11:38:48,-1,nan,nan,nan,nan,1,3,nan,nan,1703,0.43127787,7.1533012,209.33206,250.01956,nan,373.077,1.22342,11.9958,nan,nan
1980-12-19 11:40:09,-1,nan,nan,nan,nan,1,4,nan,nan,1703,0.43129575,7.1533918,209.32399,250.02321,nan,nan,nan,nan,nan,nan
1980-12-19 11:41:30,1,4.58333,7.88333,6.43333,1.28128,1,1,73255.8,66985.1,1703,0.43130469,7.1534367,209.31018,250.02502,129.604,373.105,2.78665,13.232,34.7759,33.2542
1980-12-19 11:42:51,1,2.78333,4.5,6.03333,1.63104,1,1,74269.2,70907.5,1703,0.43131363,7.1534824,209.30028,250.02684,128.662,375.904,-4.47999,16.6578,35.0157,34.214
1980-12-19 11:44:13,1,3.64286,5.52857,5.91429,2.43134,1,1,74269.6,69333.4,1703,0.43133152,7.153573,209.29221,250.03049,132.642,373.898,1.22431,17.9581,35.0157,33.8321
1980-12-19 11:45:34,1,-3.18333,8.45,2.96667,2.52113,1,1,67250.3,65761.4,1703,0.43134046,7.1536179,209.2823,250.0323,132.61,366.815,4.00093,19.3198,33.32,32.9491
1980-12-19 11:49:37,1,2.0,10.7667,2.46667,1.8959,1,1,92149.8,67094.2,1703,0.4294754,7.1856303,208.64185,249.43091,134.561,364.343,6.60609,7.29446,39.0036,33.2813
1980-12-19 11:51:51,1,7.03333,5.08333,4.6,0.806398,1,1,63737.0,70091.8,1703,0.43139404,7.1538897,209.23463,250.04323,136.234,359.696,6.30648,1.63913,32.438,34.0167
1980-12-19 11:51:52,1,7.01429,5.18571,4.71429,0.837148,1,1,57985.7,77302.8,1703,0.4313851,7.1538448,209.2328,250.0414,109.306,380.95,1.46387,19.1081,30.9399,35.7236
1980-12-19 11:52:19,1,5.42857,5.1,6.8,2.83232,1,1,73630.3,82493.4,1703,0.43140298,7.1539354,209.23254,250.04504,122.066,377.843,1.05579,18.1651,34.8647,36.9035
1980-12-19 11:53:40,1,6.73333,3.81667,6.5,0.732765,1,1,56201.2,88198.8,1703,0.43141192,7.1539803,209.22264,250.04686,115.903,375.292,1.69708,19.1702,30.46,38.1583
1980-12-19 11:55:01,1,7.25714,2.54286,3.6,1.52476,1,1,70651.2,90422.6,1703,0.4314298,7.1540709,209.21455,250.05049,126.319,376.67,-0.037848,15.7046,34.1521,38.6364
1980-12-19 11:56:22,1,6.56667,4.4,5.53333,1.10202,1,1,68662.7,76534.1,1703,0.43143874,7.1541166,209.20467,250.05232,125.36,373.39,1.51163,17.4192,33.6681,35.5456
1980-12-19 11:57:43,1,9.28333,5.5,2.36667,1.16058,1,1,79057.8,72944.2,1703,0.43144768,7.1541615,209.19476,250.05414,137.819,377.701,2.01805,12.9747,36.1269,34.7019
1980-12-19 11:59:04,-1,nan,nan,nan,nan,1,-3,nan,nan,1703,0.43146557,7.1542521,209.18277,250.05777,nan,381.604,10.6809,7.61895,nan,nan
1980-12-19 12:00:25,1,8.5,-2.61667,-5.1,1.91086,1,1,57465.2,70024.4,1703,0.43147451,7.1542978,209.17288,250.0596,132.924,372.408,-14.8883,2.29324,30.8007,34.0003
1980-12-19 12:04:28,-1,nan,nan,nan,nan,1,3,nan,nan,1703,0.43151027,7.1544752,209.14497,250.06685,nan,372.531,5.74973,15.086,nan,nan
1980-12-19 12:05:49,-1,nan,nan,nan,nan,1,3,nan,nan,1703,0.43151921,7.1545191,209.13507,250.06866,nan,370.792,-18.1809,16.7038,nan,nan
1980-12-19 12:06:33,-1,nan,nan,nan,nan,1,3,nan,nan,1703,0.42962641,7.186347,208.52063,249.46204,nan,275.934,43.755,8.76976,nan,nan
1980-12-19 12:07:10,-1,nan,nan,nan,nan,1,3,nan,nan,1703,0.43153709,7.1546078,209.12306,250.07228,nan,381.793,9.78073,17.0814,nan,nan
1980-12-19 12:08:31,-1,nan,nan,nan,nan,1,3,nan,nan,1703,0.43154603,7.1546526,209.11316,250.0741,nan,382.458,15.1782,25.693,nan,nan
1980-12-19 12:09:52,-1,nan,nan,nan,nan,1,3,nan,nan,1703,0.43155497,7.1546965,209.10326,250.07591,nan,349.308,74.6741,-7.03868,nan,nan
1980-12-19 12:11:12,-1,nan,nan,nan,nan,1,3,nan,nan,1703,0.43157285,7.1547852,209.09517,250.07954,nan,385.453,24.7901,29.582,nan,nan
1980-12-19 12:12:33,1,11.0667,14.15,11.5,0.477552,1,1,93932.8,59316.0,1703,0.4315818,7.15483,209.08527,250.08136,106.946,385.723,23.0764,32.7077,39.3792,31.2928
1980-12-19 12:13:54,1,11.15,13.8333,10.8333,0.94883,1,1,89554.9,60855.1,1703,0.43159074,7.1548738,209.07535,250.08316,108.721,386.512,19.5373,28.5665,38.4506,31.6961
1980-12-19 12:15:15,1,-4.61429,16.4714,8.22857,1.22224,1,1,92816.2,79339.8,1703,0.43160862,7.1549625,209.06726,250.08679,119.704,364.383,25.2923,25.2696,39.1444,36.1912
1980-12-19 12:16:37,1,0.966667,15.85,10.2667,3.84885,1,1,93340.1,62459.1,1703,0.43161756,7.1550074,209.05345,250.08861,109.338,364.274,28.7726,23.2044,39.2547,32.1111
1980-12-19 12:17:58,1,1.53333,18.0,1.03333,2.83392,1,1,107077.0,56434.4,1703,0.4316265,7.1550512,209.04355,250.09042,116.602,370.17,30.4064,22.0714,42.0441,30.5232
1980-12-19 12:19:19,1,4.78333,19.5167,0.3,1.69296,1,1,73800.7,55386.8,1703,0.43164438,7.1551399,209.03545,250.09404,98.2601,380.089,33.5541,12.4759,34.905,30.2385
1980-12-19 12:20:40,1,4.31667,16.8167,6.8,1.25277,1,1,97365.0,65333.4,1703,0.43165332,7.1551847,209.02554,250.09586,125.297,375.668,23.4186,18.7384,40.0921,32.8417
1980-12-19 12:22:01,1,11.4833,-0.7,12.5,1.02212,1,1,81359.3,78037.9,1703,0.4316712,7.1552734,209.01746,250.09949,112.518,372.392,7.19882,12.1944,36.6489,35.8931
1980-12-19 12:23:22,1,17.0333,-4.45,13.8667,0.356293,1,1,57698.8,68608.5,1703,0.43168014,7.1553173,209.00755,250.1013,94.78,364.874,3.29726,6.29148,30.8632,33.6548
1980-12-19 12:24:43,1,17.3667,-0.883333,11.5333,1.39613,1,1,58581.3,66768.3,1703,0.43168908,7.1553621,208.99374,250.10312,102.947,363.657,13.1154,1.8001,31.0984,33.2004
1980-12-19 12:26:04,1,18.1333,-4.21667,11.0,0.668539,1,1,57512.2,66777.6,1703,0.43170696,7.1554508,208.98564,250.10674,97.951,360.1,3.37876,4.29044,30.8133,33.2027
1980-12-19 12:27:25,1,18.1667,-7.56667,10.4,1.93333,1,1,57409.9,67844.3,1703,0.43171591,7.1554947,208.97574,250.10855,97.2478,362.652,2.33696,4.18322,30.7859,33.4668
1980-12-19 12:28:46,1,17.7333,-8.75,12.2,0.530461,1,1,46264.2,59186.9,1703,0.43172485,7.1555395,208.96584,250.11037,97.1903,364.496,1.56992,4.69205,27.6363,31.2587
1980-12-19 12:30:07,1,17.7,-11.7167,8.46667,0.619363,1,1,50706.8,61732.0,1703,0.43174273,7.1556282,208.95775,250.114,101.913,363.978,1.74881,2.32558,28.9328,31.9237
1980-12-19 12:31:28,1,14.0667,-12.0167,6.16667,0.71122,1,1,49282.4,64155.4,1703,0.43175167,7.1556721,208.94783,250.1158,110.259,362.186,4.2936,3.60065,28.5236,32.5443
1980-12-19 12:32:49,1,14.4667,-10.3667,7.33333,0.43589,1,1,53882.5,65241.2,1703,0.43176061,7.1557169,208.93402,250.11761,112.544,362.199,2.31127,1.77874,29.8251,32.8185
1980-12-19 12:34:10,1,14.1667,-9.93333,9.73333,0.616441,1,1,48614.7,65528.4,1703,0.43177849,7.1558056,208.92593,250.12125,113.604,362.655,3.87568,3.82302,28.3297,32.8907
1980-12-19 12:35:31,1,12.4667,-10.0667,11.2333,0.984886,1,1,49033.2,64937.9,1703,0.43178743,7.1558495,208.91603,250.12306,106.482,362.078,3.41222,4.0555,28.4513,32.7421
1980-12-19 12:36:52,1,13.6833,-9.36667,8.56667,0.634429,1,1,51302.2,59295.7,1703,0.43179637,7.1558943,208.90613,250.12488,108.364,362.411,6.31351,0.700569,29.1022,31.2874
1980-12-19 12:38:13,1,11.7833,-8.7,12.8667,0.428499,1,1,52274.8,59503.0,1703,0.43181425,7.155983,208.89803,250.12849,110.498,360.75,3.46789,1.71882,29.3768,31.342
1980-12-19 12:39:34,-1,nan,nan,nan,nan,1,4,nan,nan,1703,0.43182319,7.1560268,208.88812,250.13031,nan,nan,nan,nan,nan,nan
1980-12-19 12:40:55,1,9.63333,-12.2667,7.0,0.290593,1,1,47765.2,53302.1,1703,0.43183213,7.1560717,208.87431,250.13213,125.362,360.937,8.71201,1.57327,28.0811,29.664
1980-12-19 12:42:16,1,9.46667,-11.4333,7.93333,0.382971,1,1,50122.9,52869.8,1703,0.43185002,7.1561604,208.86623,250.13576,124.809,363.094,7.97872,4.28693,28.7658,29.5435
1980-12-19 12:43:36,1,8.2,-10.3,6.53333,0.319722,1,1,57881.9,54955.8,1703,0.43185896,7.1562042,208.85631,250.13756,134.892,365.525,4.24634,4.61488,30.9122,30.1207
1980-12-19 12:44:57,1,6.24286,-7.55714,6.8,0.254751,1,1,42749.8,44170.6,1703,0.4318679,7.156249,208.84641,250.13937,157.963,333.5,22.1684,7.96278,26.5659,27.0038
1980-12-19 12:46:18,1,7.61667,-10.0667,5.46667,0.377492,1,1,55810.7,62465.0,1703,0.43188578,7.1563377,208.83832,250.14301,134.161,368.087,-0.443505,6.59959,30.354,32.1127
1980-12-19 12:47:39,1,7.54286,-10.8286,4.4,0.829064,1,1,60565.8,62987.5,1703,0.43189472,7.1563816,208.82841,250.14482,128.103,368.566,-0.141239,6.60907,31.6207,32.2467
1980-12-19 12:49:01,1,6.3,-12.4714,2.6,0.643016,1,1,72660.5,65712.2,1703,0.4319126,7.1564703,208.82031,250.14844,134.005,368.642,0.547494,7.2302,34.6343,32.9368
1980-12-19 12:50:22,1,6.75,-11.5667,3.93333,0.529413,1,1,71012.9,69351.9,1703,0.43192154,7.1565151,208.8065,250.15025,129.874,368.81,2.85274,6.19895,34.2394,33.8366
1980-12-19 12:51:43,1,6.65,-10.3667,4.03333,0.486769,1,1,71972.2,66628.6,1703,0.43193048,7.156559,208.7966,250.15207,140.9,370.638,-2.27796,8.10026,34.4699,33.1656
1980-12-19 12:53:04,1,7.03333,-10.3667,4.6,0.592546,1,1,75537.5,69503.5,1703,0.43194836,7.1566477,208.78851,250.1557,139.0,369.878,0.425751,6.8034,35.3134,33.8736
1980-12-19 12:54:25,1,7.46667,-10.8167,4.8,0.332081,1,1,73577.7,72188.1,1703,0.4319573,7.1566925,208.77861,250.15752,132.272,368.315,2.05845,4.98643,34.8523,34.5216
1980-12-19 12:55:46,1,7.66667,-10.3333,5.2,0.210819,1,1,57306.1,63407.5,1703,0.4319663,7.1567364,208.76869,250.15932,132.224,368.399,1.63666,5.23757,30.758,32.354
1980-12-19 12:57:07,1,6.96667,-9.56667,4.93333,0.739369,1,1,76116.2,74924.1,1703,0.43198413,7.1568251,208.7606,250.16295,136.211,369.243,1.68784,4.37655,35.4484,35.1697
1980-12-19 12:58:28,1,6.28333,-10.0333,3.9,0.374537,1,1,73904.1,77338.0,1703,0.43199313,7.1568699,208.7468,250.16476,131.429,369.811,1.01923,3.55068,34.9295,35.7317
1980-12-19 12:59:49,1,7.12857,-9.98571,4.11429,0.285714,1,1,74724.1,76172.8,1703,0.43200207,7.1569138,208.73689,250.16658,134.128,369.83,1.29987,3.14666,35.1227,35.4616